Voltar ao catálogo

SL-8 R/B

AtivoLEO
NORAD 4784·ROCKET BODY·🇷🇺 Russia

Lançado Dec 2, 1970 de Plesetsk Cosmodrome

Loading…

Próximas Passagens

TLE

Source: Space-Track
1  4784U 70102B   26225.19514404 -.00000043  00000-0 -20366-4 0  9998
2  4784  74.0283 178.5920 0026278 182.0546 279.4057 13.77008814797019

Acompanhe SL-8 R/B em tempo real com AllMySat

Download on the App Store